Time,TemperatureF,DewpointF,PressureIn,WindDirection,WindDirectionDegrees,WindSpeedMPH,WindSpeedGustMPH,Humidity,HourlyPrecipIn,Conditions,Clouds,dailyrainin,SolarRadiationWatts/m^2,SoftwareType,DateUTC
2013-09-14 00:02:00,58.0,57.0,-100.00,NNE,26,3.0,6.0,97,0.00,,,0.02,0.000000,,2013-09-14 07:02:00,
2013-09-14 00:12:00,58.0,57.0,-100.00,NNE,26,3.0,6.0,97,0.00,,,0.02,0.000000,,2013-09-14 07:12:00,
2013-09-14 00:42:00,58.0,57.0,-100.00,NNE,22,4.0,6.0,97,0.00,,,0.02,0.000000,,2013-09-14 07:42:00,
2013-09-14 00:52:00,58.0,57.0,-100.00,NNE,22,4.0,6.0,97,0.00,,,0.02,0.000000,,2013-09-14 07:52:00,
2013-09-14 01:02:00,58.0,57.0,-100.00,NNE,22,4.0,6.0,97,0.00,,,0.02,0.000000,,2013-09-14 08:02:00,
2013-09-14 01:12:00,58.0,57.0,-100.00,NNE,22,4.0,6.0,97,0.00,,,0.02,0.000000,,2013-09-14 08:12:00,
2013-09-14 01:42:00,58.0,58.0,-100.00,NE,35,3.0,6.0,99,0.00,,,-99.99,0.000000,,2013-09-14 08:42:00,
2013-09-14 01:52:00,58.0,58.0,-100.00,NE,35,3.0,6.0,99,0.00,,,-99.99,0.000000,,2013-09-14 08:52:00,
2013-09-14 02:02:00,58.0,58.0,-100.00,NE,35,3.0,6.0,99,0.00,,,-99.99,0.000000,,2013-09-14 09:02:00,
2013-09-14 02:12:00,58.0,58.0,-100.00,NE,35,3.0,6.0,99,0.00,,,-99.99,0.000000,,2013-09-14 09:12:00,
2013-09-14 02:43:00,57.0,57.0,-100.00,NNE,26,3.0,6.0,100,0.00,,,0.01,0.000000,,2013-09-14 09:43:00,
2013-09-14 02:53:00,57.0,57.0,-100.00,NNE,26,3.0,6.0,100,0.00,,,0.01,0.000000,,2013-09-14 09:53:00,
2013-09-14 03:03:00,57.0,57.0,-100.00,NNE,26,3.0,6.0,100,0.00,,,0.01,0.000000,,2013-09-14 10:03:00,
2013-09-14 03:12:00,57.0,57.0,-100.00,NNE,26,3.0,6.0,100,0.00,,,0.01,0.000000,,2013-09-14 10:12:00,
2013-09-14 03:42:00,57.0,57.0,-100.00,NNE,21,3.0,6.0,100,0.00,,,-99.99,0.000000,,2013-09-14 10:42:00,
2013-09-14 03:53:00,57.0,57.0,-100.00,NNE,21,3.0,6.0,100,0.00,,,-99.99,0.000000,,2013-09-14 10:53:00,
2013-09-14 04:02:00,57.0,57.0,-100.00,NNE,21,3.0,6.0,100,0.00,,,-99.99,0.000000,,2013-09-14 11:02:00,
2013-09-14 04:12:00,57.0,57.0,-100.00,NNE,21,3.0,6.0,100,0.00,,,-99.99,0.000000,,2013-09-14 11:12:00,
2013-09-14 04:42:00,57.0,57.0,-100.00,NNE,25,3.0,5.0,100,0.00,,,0.00,0.000000,,2013-09-14 11:42:00,
2013-09-14 04:52:00,57.0,57.0,-100.00,NNE,25,3.0,5.0,100,0.00,,,0.00,0.000000,,2013-09-14 11:52:00,
2013-09-14 05:02:00,57.0,57.0,-100.00,NNE,25,3.0,5.0,100,0.00,,,0.00,0.000000,,2013-09-14 12:02:00,
2013-09-14 05:12:00,57.0,57.0,-100.00,NNE,25,3.0,5.0,100,0.00,,,0.00,0.000000,,2013-09-14 12:12:00,
2013-09-14 05:42:00,57.0,57.0,-100.00,NNE,22,3.0,6.0,100,0.01,,,0.01,0.000000,,2013-09-14 12:42:00,
2013-09-14 05:52:00,57.0,57.0,-100.00,NNE,22,3.0,6.0,100,0.01,,,0.01,0.000000,,2013-09-14 12:52:00,
2013-09-14 06:01:00,57.0,57.0,-100.00,NNE,22,3.0,6.0,100,0.01,,,0.01,0.000000,,2013-09-14 13:01:00,
2013-09-14 06:12:00,57.0,57.0,-100.00,NNE,22,3.0,6.0,100,0.01,,,0.01,0.000000,,2013-09-14 13:12:00,
2013-09-14 06:42:00,57.0,57.0,-100.00,NE,48,3.0,5.0,100,0.00,,,0.01,0.000000,,2013-09-14 13:42:00,
2013-09-14 06:52:00,57.0,57.0,-100.00,NE,48,3.0,5.0,100,0.00,,,0.01,0.000000,,2013-09-14 13:52:00,
2013-09-14 07:02:00,57.0,57.0,-100.00,NE,48,3.0,5.0,100,0.00,,,0.01,0.000000,,2013-09-14 14:02:00,
2013-09-14 07:11:00,57.0,57.0,-100.00,NE,48,3.0,5.0,100,0.00,,,0.01,0.000000,,2013-09-14 14:11:00,
2013-09-14 07:42:00,57.0,57.0,-100.00,NE,41,2.0,4.0,100,0.00,,,0.01,1.000000,,2013-09-14 14:42:00,
2013-09-14 07:52:00,57.0,57.0,-100.00,NE,41,2.0,4.0,100,0.00,,,0.01,1.000000,,2013-09-14 14:52:00,
2013-09-14 08:02:00,57.0,57.0,-100.00,NE,41,2.0,4.0,100,0.00,,,0.01,1.000000,,2013-09-14 15:02:00,
2013-09-14 08:11:00,57.0,57.0,-100.00,NE,41,2.0,4.0,100,0.00,,,0.01,1.000000,,2013-09-14 15:11:00,
2013-09-14 08:13:00,57.0,57.0,-100.00,NE,44,2.0,4.0,100,0.00,,,0.01,20.000000,,2013-09-14 15:13:00,
2013-09-14 08:43:00,57.0,57.0,-100.00,NE,44,2.0,4.0,100,0.00,,,0.01,20.000000,,2013-09-14 15:43:00,
2013-09-14 08:53:00,57.0,57.0,-100.00,NE,44,2.0,4.0,100,0.00,,,0.01,20.000000,,2013-09-14 15:53:00,
2013-09-14 09:03:00,57.0,57.0,-100.00,NE,44,2.0,4.0,100,0.00,,,0.01,20.000000,,2013-09-14 16:03:00,
2013-09-14 09:44:00,58.0,58.0,-100.00,North,7,2.0,4.0,100,0.00,,,0.01,52.000000,,2013-09-14 16:44:00,
2013-09-14 09:54:00,58.0,58.0,-100.00,North,7,2.0,4.0,100,0.00,,,0.01,52.000000,,2013-09-14 16:54:00,
2013-09-14 10:03:00,58.0,58.0,-100.00,North,7,2.0,4.0,100,0.00,,,0.01,52.000000,,2013-09-14 17:03:00,
2013-09-14 10:11:00,58.0,58.0,-100.00,North,7,2.0,4.0,100,0.00,,,0.01,52.000000,,2013-09-14 17:11:00,
2013-09-14 10:43:00,59.0,59.0,-100.00,NNE,23,2.0,4.0,100,0.00,,,0.01,108.000000,,2013-09-14 17:43:00,
2013-09-14 10:54:00,59.0,59.0,-100.00,NNE,23,2.0,4.0,100,0.00,,,0.01,108.000000,,2013-09-14 17:54:00,
2013-09-14 11:02:00,59.0,59.0,-100.00,NNE,23,2.0,4.0,100,0.00,,,0.01,108.000000,,2013-09-14 18:02:00,
2013-09-14 11:11:00,59.0,59.0,-100.00,NNE,23,2.0,4.0,100,0.00,,,0.01,108.000000,,2013-09-14 18:11:00,
2013-09-14 11:43:00,60.0,60.0,-100.00,WNW,300,1.0,4.0,100,0.00,,,0.01,168.000000,,2013-09-14 18:43:00,
2013-09-14 11:52:00,60.0,60.0,-100.00,WNW,300,1.0,4.0,100,0.00,,,0.01,168.000000,,2013-09-14 18:52:00,
2013-09-14 12:01:00,60.0,60.0,-100.00,WNW,300,1.0,4.0,100,0.00,,,0.01,168.000000,,2013-09-14 19:01:00,
2013-09-14 12:11:00,60.0,60.0,-100.00,WNW,300,1.0,4.0,100,0.00,,,0.01,168.000000,,2013-09-14 19:11:00,
2013-09-14 12:42:00,61.0,60.0,-100.00,ENE,65,1.0,2.0,97,0.00,,,0.01,153.000000,,2013-09-14 19:42:00,
2013-09-14 12:52:00,61.0,60.0,-100.00,ENE,65,1.0,2.0,97,0.00,,,0.01,153.000000,,2013-09-14 19:52:00,
2013-09-14 13:02:00,61.0,60.0,-100.00,ENE,65,1.0,2.0,97,0.00,,,0.01,153.000000,,2013-09-14 20:02:00,
2013-09-14 13:12:00,61.0,60.0,-100.00,ENE,65,1.0,2.0,97,0.00,,,0.01,153.000000,,2013-09-14 20:12:00,
2013-09-14 13:42:00,60.0,59.0,-100.00,SSW,211,3.0,4.0,96,0.00,,,0.01,145.000000,,2013-09-14 20:42:00,
2013-09-14 13:52:00,60.0,59.0,-100.00,SSW,211,3.0,4.0,96,0.00,,,0.01,145.000000,,2013-09-14 20:52:00,
2013-09-14 14:02:00,60.0,59.0,-100.00,SSW,211,3.0,4.0,96,0.00,,,0.01,145.000000,,2013-09-14 21:02:00,
2013-09-14 14:11:00,60.0,59.0,-100.00,SSW,211,3.0,4.0,96,0.00,,,0.01,145.000000,,2013-09-14 21:11:00,
2013-09-14 14:13:00,57.0,57.0,-100.00,SSW,208,4.0,6.0,99,0.00,,,0.01,159.000000,,2013-09-14 21:13:00,
2013-09-14 14:44:00,57.0,57.0,-100.00,SSW,208,4.0,6.0,99,0.00,,,0.01,159.000000,,2013-09-14 21:44:00,
2013-09-14 14:54:00,57.0,57.0,-100.00,SSW,208,4.0,6.0,99,0.00,,,0.01,159.000000,,2013-09-14 21:54:00,
2013-09-14 15:04:00,57.0,57.0,-100.00,SSW,208,4.0,6.0,99,0.00,,,0.01,159.000000,,2013-09-14 22:04:00,
2013-09-14 15:42:00,57.0,57.0,-100.00,SW,217,3.0,6.0,100,0.00,,,0.01,169.000000,,2013-09-14 22:42:00,
2013-09-14 15:53:00,57.0,57.0,-100.00,SW,217,3.0,6.0,100,0.00,,,0.01,169.000000,,2013-09-14 22:53:00,
2013-09-14 16:03:00,57.0,57.0,-100.00,SW,217,3.0,6.0,100,0.00,,,0.01,169.000000,,2013-09-14 23:03:00,
2013-09-14 16:11:00,57.0,57.0,-100.00,SW,217,3.0,6.0,100,0.00,,,0.01,169.000000,,2013-09-14 23:11:00,
2013-09-14 16:42:00,57.0,57.0,-100.00,SW,215,3.0,6.0,100,0.01,,,0.02,142.000000,,2013-09-14 23:42:00,
2013-09-14 16:53:00,57.0,57.0,-100.00,SW,215,3.0,6.0,100,0.01,,,0.02,142.000000,,2013-09-14 23:53:00,
2013-09-14 17:02:00,57.0,57.0,-100.00,SW,215,3.0,6.0,100,0.01,,,0.02,142.000000,,2013-09-15 00:02:00,
2013-09-14 17:12:00,57.0,57.0,-100.00,SW,215,3.0,6.0,100,0.01,,,0.02,142.000000,,2013-09-15 00:12:00,
2013-09-14 17:42:00,57.0,57.0,-100.00,SW,235,3.0,4.0,100,0.01,,,0.03,104.000000,,2013-09-15 00:42:00,
2013-09-14 17:53:00,57.0,57.0,-100.00,SW,235,3.0,4.0,100,0.01,,,0.03,104.000000,,2013-09-15 00:53:00,
2013-09-14 18:01:00,57.0,57.0,-100.00,SW,235,3.0,4.0,100,0.01,,,0.03,104.000000,,2013-09-15 01:01:00,
2013-09-14 18:11:00,57.0,57.0,-100.00,SW,235,3.0,4.0,100,0.01,,,0.03,104.000000,,2013-09-15 01:11:00,
2013-09-14 18:42:00,57.0,57.0,-100.00,WSW,244,2.0,4.0,100,0.00,,,0.03,59.000000,,2013-09-15 01:42:00,
2013-09-14 18:52:00,57.0,57.0,-100.00,WSW,244,2.0,4.0,100,0.00,,,0.03,59.000000,,2013-09-15 01:52:00,
2013-09-14 19:02:00,57.0,57.0,-100.00,WSW,244,2.0,4.0,100,0.00,,,0.03,59.000000,,2013-09-15 02:02:00,
2013-09-14 19:12:00,57.0,57.0,-100.00,WSW,244,2.0,4.0,100,0.00,,,0.03,59.000000,,2013-09-15 02:12:00,
2013-09-14 19:42:00,56.0,56.0,-100.00,SW,226,3.0,5.0,100,0.01,,,0.04,19.000000,,2013-09-15 02:42:00,
2013-09-14 19:52:00,56.0,56.0,-100.00,SW,226,3.0,5.0,100,0.01,,,0.04,19.000000,,2013-09-15 02:52:00,
2013-09-14 20:02:00,56.0,56.0,-100.00,SW,226,3.0,5.0,100,0.01,,,0.04,19.000000,,2013-09-15 03:02:00,
2013-09-14 20:11:00,56.0,56.0,-100.00,SW,226,3.0,5.0,100,0.01,,,0.04,19.000000,,2013-09-15 03:11:00,
2013-09-14 20:13:00,55.0,55.0,-100.00,SSW,213,2.0,5.0,100,0.00,,,0.04,1.000000,,2013-09-15 03:13:00,
2013-09-14 20:44:00,55.0,55.0,-100.00,SSW,213,2.0,5.0,100,0.00,,,0.04,1.000000,,2013-09-15 03:44:00,
2013-09-14 20:55:00,55.0,55.0,-100.00,SSW,213,2.0,5.0,100,0.00,,,0.04,1.000000,,2013-09-15 03:55:00,
2013-09-14 21:02:00,-999.0,-99.9,-100.00,SSW,213,2.0,5.0,-999,-99.99,,,-99.99,1.000000,,2013-09-15 04:02:00,
2013-09-14 21:13:00,55.0,55.0,-100.00,West,265,2.0,4.0,100,0.00,,,0.04,0.000000,,2013-09-15 04:13:00,
2013-09-14 21:43:00,55.0,55.0,-100.00,West,265,2.0,4.0,100,0.00,,,0.04,0.000000,,2013-09-15 04:43:00,
2013-09-14 21:54:00,55.0,55.0,-100.00,West,265,2.0,4.0,100,0.00,,,0.04,0.000000,,2013-09-15 04:54:00,
2013-09-14 22:03:00,55.0,55.0,-100.00,West,265,2.0,4.0,100,0.00,,,0.04,0.000000,,2013-09-15 05:03:00,
2013-09-14 22:42:00,55.0,55.0,-100.00,WSW,249,2.0,3.0,100,0.01,,,-99.99,0.000000,,2013-09-15 05:42:00,
2013-09-14 22:52:00,55.0,55.0,-100.00,WSW,249,2.0,3.0,100,0.01,,,-99.99,0.000000,,2013-09-15 05:52:00,
2013-09-14 23:02:00,55.0,55.0,-100.00,WSW,249,2.0,3.0,100,0.01,,,-99.99,0.000000,,2013-09-15 06:02:00,
2013-09-14 23:12:00,55.0,55.0,-100.00,WSW,249,2.0,3.0,100,0.01,,,-99.99,0.000000,,2013-09-15 06:12:00,
2013-09-14 23:42:00,55.0,55.0,-100.00,SW,224,2.0,3.0,100,0.00,,,0.05,0.000000,,2013-09-15 06:42:00,
2013-09-14 23:52:00,55.0,55.0,-100.00,SW,224,2.0,3.0,100,0.00,,,0.05,0.000000,,2013-09-15 06:52:00,